contact:dominique.lefevre@mio.osupytheas.fr, maurice.libes@osupytheas.fr, didier.mallarino@osupytheas.fr
Project:EMSO http://www.emso-fr.org/EMSO-France
Depth: 2436.0 m
Title:EMSO Ligure Ouest : Data MII capteur AQUADOPP
Date,Latitude,Longitude,X_East,Y_North,Z_Up,Amplitude_X,Amplitude_Y,Amplitude_Z,Batterie,SoundSpeed,Heading,Pitch,Roll,Pressure,TIS,Speed,Direction
, degrees North, degrees East, m.s-1, m.s-1,m.s-1, 1, 1, 1, Volt, m.s-1, degree, degree, degree, dbar, degree_C, m.s-1, degree
2023-10-25T00:04:03,42.805,6.029,-0.024,-0.01,-0.033,104.0,104.0,102.0,13.4,1505.2,359.0,-0.8,1.8,2471.566,13.29,0.026,247.4
2023-10-25T00:07:03,42.805,6.029,-0.017,0.001,0.003,104.0,104.0,104.0,13.4,1505.2,352.2,-0.8,1.8,2471.569,13.29,0.017,273.4
2023-10-25T00:10:03,42.805,6.029,-0.031,-0.016,-0.003,104.0,103.0,103.0,13.3,1505.2,335.0,-0.8,1.8,2471.507,13.29,0.034,242.7
2023-10-25T00:13:03,42.805,6.029,-0.036,-0.03,-0.028,104.0,104.0,103.0,13.4,1505.2,348.6,-0.8,1.8,2471.522,13.29,0.046,230.2
2023-10-25T00:16:03,42.805,6.029,-0.021,-0.001,-0.036,104.0,104.0,102.0,13.4,1505.2,344.2,-0.8,1.8,2471.536,13.29,0.021,267.3
2023-10-25T00:19:03,42.805,6.029,-0.031,-0.016,-0.002,104.0,104.0,102.0,13.3,1505.2,339.3,-0.8,1.8,2471.538,13.29,0.034,242.7
2023-10-25T00:22:03,42.805,6.029,-0.023,-0.016,-0.033,104.0,102.0,103.0,13.4,1505.2,336.3,-0.8,1.8,2471.528,13.29,0.028,235.2
2023-10-25T00:25:03,42.805,6.029,-0.008,-0.011,-0.014,104.0,104.0,103.0,13.4,1505.2,354.9,-0.7,1.8,2471.516,13.29,0.013,216.0
2023-10-25T00:28:03,42.805,6.029,-0.027,-0.022,-0.012,104.0,104.0,102.0,13.4,1505.2,343.7,-0.8,1.8,2471.528,13.29,0.034,230.8
2023-10-25T00:31:03,42.805,6.029,-0.039,-0.024,-0.033,105.0,104.0,103.0,13.4,1505.2,333.4,-0.8,1.8,2471.492,13.29,0.045,238.4
2023-10-25T00:34:03,42.805,6.029,-0.016,0.01,-0.036,105.0,103.0,104.0,13.4,1505.2,352.2,-0.8,1.8,2471.509,13.29,0.018,302.0
2023-10-25T00:37:03,42.805,6.029,-0.009,-0.02,-0.003,105.0,104.0,103.0,13.4,1505.2,352.4,-0.7,1.8,2471.517,13.29,0.021,204.2
2023-10-25T00:40:03,42.805,6.029,-0.008,-0.029,-0.03,104.0,105.0,102.0,13.3,1505.2,343.0,-0.7,1.8,2471.514,13.29,0.03,195.4
2023-10-25T00:43:03,42.805,6.029,-0.007,-0.017,0.002,104.0,104.0,103.0,13.3,1505.2,343.9,-0.7,1.8,2471.539,13.29,0.018,202.4
2023-10-25T00:46:03,42.805,6.029,-0.019,0.004,-0.02,104.0,104.0,103.0,13.4,1505.2,344.7,-0.8,1.8,2471.517,13.29,0.019,281.9
2023-10-25T00:49:03,42.805,6.029,-0.027,-0.01,-0.025,105.0,104.0,102.0,13.4,1505.2,344.7,-0.8,1.8,2471.519,13.29,0.028,249.7
2023-10-25T00:52:03,42.805,6.029,-0.04,-0.013,-0.032,104.0,104.0,102.0,13.4,1505.2,335.6,-0.7,1.8,2471.498,13.29,0.042,252.0
2023-10-25T00:55:03,42.805,6.029,-0.019,-0.008,-0.037,104.0,104.0,102.0,13.4,1505.2,351.0,-0.8,1.8,2471.509,13.29,0.02,247.2
2023-10-25T00:58:03,42.805,6.029,0.006,-0.035,-0.019,106.0,103.0,102.0,13.4,1505.2,337.5,-0.8,1.9,2471.533,13.29,0.035,170.3
2023-10-25T01:04:03,42.805,6.029,-0.031,-0.021,-0.04,105.0,104.0,103.0,13.3,1505.2,350.8,-0.8,1.8,2471.557,13.28,0.037,235.9
2023-10-25T01:07:03,42.805,6.029,-0.009,-0.008,-0.014,104.0,104.0,103.0,13.4,1505.2,0.0,-0.8,1.8,2471.578,13.29,0.012,228.4
2023-10-25T01:10:03,42.805,6.029,-0.026,-0.018,-0.06,105.0,104.0,102.0,13.4,1505.2,336.3,-0.8,1.8,2471.554,13.29,0.031,235.3
2023-10-25T01:13:03,42.805,6.029,-0.018,-0.027,-0.044,106.0,103.0,103.0,13.4,1505.2,334.2,-0.7,1.8,2471.555,13.29,0.032,213.7
2023-10-25T01:16:03,42.805,6.029,-0.032,-0.02,-0.005,103.0,104.0,103.0,13.4,1505.2,337.5,-0.7,1.8,2471.54,13.29,0.037,238.0
2023-10-25T01:19:03,42.805,6.029,-0.028,0.001,-0.032,104.0,104.0,102.0,13.4,1505.2,346.4,-0.8,1.8,2471.586,13.29,0.028,272.0
2023-10-25T01:22:02,42.805,6.029,-0.036,-0.018,-0.021,103.0,104.0,102.0,13.3,1505.2,350.8,-0.8,1.8,2471.552,13.29,0.04,243.4
2023-10-25T01:25:03,42.805,6.029,-0.039,-0.019,-0.036,104.0,103.0,104.0,13.3,1505.2,340.7,-0.8,1.8,2471.519,13.29,0.043,244.0
2023-10-25T01:28:03,42.805,6.029,-0.013,-0.051,-0.039,104.0,103.0,102.0,13.4,1505.2,337.5,-0.8,1.8,2471.552,13.29,0.052,194.3
2023-10-25T01:31:03,42.805,6.029,-0.014,-0.019,-0.02,104.0,103.0,104.0,13.4,1505.2,339.0,-0.8,1.8,2471.534,13.29,0.023,216.4
2023-10-25T01:34:03,42.805,6.029,-0.036,-0.026,-0.059,105.0,103.0,102.0,13.3,1505.2,341.5,-0.8,1.8,2471.545,13.29,0.044,234.2
2023-10-25T01:37:03,42.805,6.029,-0.034,-0.02,-0.017,104.0,104.0,102.0,13.4,1505.2,339.7,-0.8,1.8,2471.542,13.29,0.039,239.5
2023-10-25T01:40:03,42.805,6.029,-0.019,-0.009,-0.028,105.0,104.0,103.0,13.4,1505.2,339.6,-0.8,1.8,2471.525,13.29,0.021,244.7
2023-10-25T01:43:03,42.805,6.029,-0.03,-0.027,-0.022,104.0,104.0,103.0,13.4,1505.2,337.3,-0.7,1.8,2471.603,13.29,0.04,228.0
2023-10-25T01:46:03,42.805,6.029,-0.011,-0.017,0.0,104.0,105.0,102.0,13.3,1505.2,338.3,-0.8,1.8,2471.541,13.29,0.02,212.9
2023-10-25T01:49:03,42.805,6.029,-0.001,-0.011,-0.008,105.0,105.0,102.0,13.4,1505.2,346.9,-0.8,1.8,2471.557,13.29,0.011,185.2
2023-10-25T01:52:03,42.805,6.029,-0.019,-0.008,-0.005,104.0,104.0,103.0,13.4,1505.2,354.9,-0.8,1.8,2471.599,13.29,0.02,247.2
2023-10-25T01:55:03,42.805,6.029,-0.033,-0.013,-0.036,105.0,104.0,103.0,13.4,1505.2,354.7,-0.8,1.8,2471.545,13.29,0.035,248.5
2023-10-25T01:58:03,42.805,6.029,-0.024,-0.001,-0.039,105.0,104.0,102.0,13.4,1505.2,358.2,-0.8,1.8,2471.549,13.29,0.024,267.6
2023-10-25T02:04:03,42.805,6.029,0.0,-0.025,-0.001,105.0,103.0,103.0,13.4,1505.2,331.1,-0.8,1.8,2471.605,13.29,0.025,180.0
2023-10-25T02:07:03,42.805,6.029,-0.027,-0.023,-0.033,104.0,103.0,104.0,13.4,1505.2,339.9,-0.8,1.8,2471.636,13.29,0.035,229.6
2023-10-25T02:10:03,42.805,6.029,-0.035,-0.022,-0.038,106.0,104.0,102.0,13.3,1505.2,350.0,-0.7,1.8,2471.602,13.29,0.041,237.8
2023-10-25T02:13:03,42.805,6.029,-0.035,-0.016,-0.02,105.0,104.0,102.0,13.4,1505.2,349.5,-0.8,1.8,2471.578,13.29,0.038,245.4
2023-10-25T02:16:03,42.805,6.029,-0.04,-0.01,-0.005,104.0,104.0,103.0,13.4,1505.2,356.9,-0.8,1.8,2471.558,13.29,0.041,256.0
2023-10-25T02:19:03,42.805,6.029,0.002,-0.016,-0.026,103.0,103.0,103.0,13.4,1505.2,350.5,-0.7,1.8,2471.617,13.29,0.016,172.9
2023-10-25T02:22:03,42.805,6.029,-0.036,-0.033,-0.058,105.0,103.0,103.0,13.4,1505.2,351.1,-0.8,1.8,2471.539,13.29,0.048,227.5
2023-10-25T02:25:03,42.805,6.029,-0.046,-0.028,-0.025,104.0,103.0,103.0,13.4,1505.2,353.3,-0.8,1.8,2471.577,13.29,0.053,238.7
2023-10-25T02:28:03,42.805,6.029,-0.032,-0.025,-0.024,105.0,104.0,103.0,13.3,1505.2,344.8,-0.8,1.8,2471.559,13.29,0.04,232.0
2023-10-25T02:31:03,42.805,6.029,-0.022,-0.017,-0.031,105.0,104.0,102.0,13.3,1505.2,338.2,-0.7,1.8,2471.577,13.29,0.027,232.3
2023-10-25T02:34:03,42.805,6.029,-0.025,-0.027,-0.034,106.0,104.0,102.0,13.4,1505.2,357.0,-0.8,1.8,2471.581,13.29,0.036,222.8
2023-10-25T02:37:03,42.805,6.029,-0.039,-0.005,-0.056,106.0,104.0,101.0,13.4,1505.2,347.3,-0.7,1.8,2471.589,13.29,0.039,262.7
2023-10-25T02:40:03,42.805,6.029,-0.02,-0.019,-0.054,103.0,104.0,103.0,13.4,1505.2,330.6,-0.7,1.8,2471.566,13.29,0.027,226.5
2023-10-25T02:43:03,42.805,6.029,-0.035,-0.009,-0.063,105.0,104.0,103.0,13.4,1505.2,352.1,-0.8,1.8,2471.6,13.29,0.036,255.6
2023-10-25T02:46:03,42.805,6.029,-0.014,-0.021,-0.042,106.0,104.0,102.0,13.4,1505.2,339.0,-0.8,1.8,2471.558,13.29,0.025,213.7
2023-10-25T02:49:03,42.805,6.029,-0.022,-0.009,-0.05,105.0,104.0,103.0,13.4,1505.2,349.7,-0.8,1.8,2471.602,13.29,0.023,247.8
2023-10-25T02:52:03,42.805,6.029,-0.032,-0.02,0.004,104.0,104.0,103.0,13.4,1505.2,341.5,-0.8,1.8,2471.632,13.29,0.037,238.0
2023-10-25T02:55:03,42.805,6.029,-0.043,-0.003,-0.035,105.0,104.0,102.0,13.3,1505.2,352.2,-0.8,1.8,2471.59,13.29,0.043,266.0
2023-10-25T02:58:03,42.805,6.029,-0.029,-0.014,-0.033,104.0,103.0,102.0,13.3,1505.2,0.0,-0.7,1.8,2471.627,13.29,0.032,244.2
2023-10-25T03:04:02,42.805,6.029,-0.02,-0.007,-0.031,105.0,105.0,103.0,13.4,1505.2,357.0,-0.8,1.8,2471.649,13.29,0.021,250.7
2023-10-25T03:07:03,42.805,6.029,-0.016,-0.003,-0.016,105.0,103.0,102.0,13.4,1505.2,347.3,-0.8,1.8,2471.645,13.29,0.016,259.4
2023-10-25T03:10:03,42.805,6.029,-0.01,-0.023,0.001,104.0,103.0,103.0,13.4,1505.2,334.8,-0.8,1.8,2471.627,13.29,0.025,203.5
2023-10-25T03:13:03,42.805,6.029,-0.045,-0.018,-0.025,105.0,104.0,102.0,13.4,1505.2,333.0,-0.8,1.8,2471.595,13.29,0.048,248.2
2023-10-25T03:16:03,42.805,6.029,-0.019,-0.034,-0.045,106.0,103.0,103.0,13.4,1505.2,334.2,-0.8,1.8,2471.585,13.29,0.038,209.2
2023-10-25T03:19:03,42.805,6.029,-0.035,0.004,-0.025,104.0,103.0,103.0,13.3,1505.2,343.2,-0.7,1.8,2471.596,13.29,0.035,276.5
2023-10-25T03:22:03,42.805,6.029,-0.028,-0.007,-0.045,104.0,104.0,102.0,13.4,1505.2,340.9,-0.8,1.8,2471.583,13.29,0.028,256.0
2023-10-25T03:25:03,42.805,6.029,-0.013,-0.02,-0.048,104.0,103.0,102.0,13.4,1505.2,343.3,-0.7,1.8,2471.603,13.29,0.023,213.0
2023-10-25T03:28:03,42.805,6.029,-0.024,-0.005,-0.011,104.0,104.0,102.0,13.4,1505.2,340.7,-0.8,1.8,2471.589,13.29,0.024,258.2
2023-10-25T03:31:03,42.805,6.029,-0.032,0.001,-0.007,105.0,104.0,102.0,13.4,1505.2,357.0,-0.7,1.8,2471.613,13.29,0.032,271.8
2023-10-25T03:34:03,42.805,6.029,-0.033,-0.013,-0.016,104.0,104.0,103.0,13.3,1505.2,335.6,-0.8,1.8,2471.585,13.29,0.035,248.5
2023-10-25T03:37:03,42.805,6.029,-0.006,-0.028,-0.002,105.0,103.0,102.0,13.3,1505.2,338.3,-0.7,1.8,2471.592,13.29,0.028,192.1
2023-10-25T03:40:03,42.805,6.029,0.004,-0.02,-0.002,105.0,103.0,103.0,13.3,1505.2,340.4,-0.7,1.8,2471.576,13.29,0.02,168.7
2023-10-25T03:43:03,42.805,6.029,-0.015,-0.021,-0.022,104.0,103.0,103.0,13.3,1505.2,338.2,-0.7,1.8,2471.608,13.29,0.025,215.5
2023-10-25T03:46:03,42.805,6.029,-0.019,0.0,-0.028,105.0,103.0,103.0,13.4,1505.2,349.4,-0.8,1.8,2471.571,13.29,0.019,270.0
2023-10-25T03:49:03,42.805,6.029,-0.02,-0.011,-0.026,105.0,102.0,103.0,13.3,1505.2,340.9,-0.8,1.8,2471.611,13.29,0.022,241.2
2023-10-25T03:52:03,42.805,6.029,-0.026,-0.009,-0.044,105.0,104.0,102.0,13.4,1505.2,339.2,-0.8,1.8,2471.582,13.29,0.027,250.9
2023-10-25T03:55:03,42.805,6.029,-0.017,-0.01,-0.028,104.0,104.0,102.0,13.3,1505.2,354.7,-0.7,1.8,2471.594,13.29,0.019,239.5
2023-10-25T03:58:03,42.805,6.029,-0.025,-0.013,-0.031,105.0,104.0,102.0,13.4,1505.2,358.0,-0.8,1.8,2471.617,13.29,0.028,242.5
2023-10-25T04:01:03,42.805,6.029,-0.022,-0.001,-0.032,105.0,104.0,102.0,13.4,1505.2,345.9,-0.8,1.8,2471.605,13.29,0.022,267.4
2023-10-25T04:04:03,42.805,6.029,-0.021,-0.026,-0.013,104.0,104.0,103.0,13.4,1505.2,336.0,-0.8,1.8,2471.62,13.29,0.033,218.9
2023-10-25T04:07:03,42.805,6.029,-0.011,-0.005,-0.012,106.0,102.0,102.0,13.4,1505.2,347.9,-0.8,1.8,2471.579,13.29,0.012,245.6
2023-10-25T04:10:03,42.805,6.029,-0.031,-0.01,-0.048,104.0,104.0,102.0,13.4,1505.2,346.1,-0.8,1.7,2471.618,13.29,0.032,252.1
2023-10-25T04:13:03,42.805,6.029,-0.028,-0.017,-0.013,103.0,104.0,102.0,13.3,1505.2,342.3,-0.8,1.8,2471.614,13.29,0.032,238.7
2023-10-25T04:16:03,42.805,6.029,-0.035,-0.011,-0.027,104.0,103.0,102.0,13.4,1505.2,338.2,-0.8,1.8,2471.602,13.29,0.036,252.6
2023-10-25T04:19:03,42.805,6.029,-0.013,-0.013,-0.043,105.0,104.0,102.0,13.4,1505.2,337.8,-0.8,1.8,2471.616,13.29,0.018,225.0
2023-10-25T04:22:03,42.805,6.029,-0.012,-0.013,-0.027,104.0,104.0,103.0,13.4,1505.2,344.5,-0.7,1.8,2471.586,13.29,0.017,222.7
2023-10-25T04:25:03,42.805,6.029,-0.013,-0.012,-0.033,105.0,103.0,102.0,13.3,1505.2,338.2,-0.8,1.8,2471.609,13.29,0.017,227.3
2023-10-25T04:28:03,42.805,6.029,-0.027,-0.027,-0.008,104.0,104.0,102.0,13.4,1505.2,341.8,-0.7,1.8,2471.604,13.29,0.038,225.0
2023-10-25T04:31:03,42.805,6.029,-0.006,-0.007,-0.04,104.0,104.0,102.0,13.3,1505.2,339.8,-0.8,1.8,2471.615,13.29,0.009,220.6
2023-10-25T04:34:03,42.805,6.029,-0.028,0.012,-0.008,105.0,103.0,102.0,13.4,1505.2,345.0,-0.7,1.8,2471.639,13.29,0.03,293.2
2023-10-25T04:37:03,42.805,6.029,-0.01,-0.015,-0.031,104.0,105.0,102.0,13.3,1505.2,341.5,-0.8,1.8,2471.665,13.29,0.018,213.7
2023-10-25T04:40:03,42.805,6.029,-0.037,-0.003,-0.054,103.0,105.0,102.0,13.4,1505.2,350.9,-0.8,1.8,2471.6,13.29,0.037,265.4
2023-10-25T04:43:03,42.805,6.029,-0.05,0.017,-0.023,103.0,104.0,103.0,13.4,1505.2,349.2,-0.8,1.8,2471.601,13.29,0.052,288.8
2023-10-25T04:46:03,42.805,6.029,-0.021,0.0,-0.027,103.0,103.0,103.0,13.4,1505.2,345.7,-0.8,1.8,2471.613,13.29,0.021,270.0
2023-10-25T04:49:03,42.805,6.029,-0.034,-0.006,-0.01,104.0,101.0,103.0,13.3,1505.2,349.6,-0.7,1.8,2471.604,13.29,0.034,260.0
2023-10-25T04:52:03,42.805,6.029,-0.021,-0.003,-0.005,105.0,104.0,103.0,13.4,1505.2,350.8,-0.7,1.8,2471.636,13.29,0.021,261.9
2023-10-25T04:55:03,42.805,6.029,-0.012,-0.004,-0.016,104.0,103.0,103.0,13.4,1505.2,348.6,-0.8,1.8,2471.644,13.29,0.012,251.6
2023-10-25T04:58:03,42.805,6.029,-0.017,-0.024,-0.074,104.0,104.0,103.0,13.4,1505.2,342.7,-0.8,1.8,2471.612,13.29,0.029,215.3
2023-10-25T05:04:03,42.805,6.029,-0.011,0.001,-0.022,104.0,104.0,102.0,13.4,1505.2,343.5,-0.8,1.8,2471.643,13.29,0.011,275.2
2023-10-25T05:07:03,42.805,6.029,-0.037,0.009,-0.036,104.0,104.0,101.0,13.3,1505.2,346.9,-0.8,1.8,2471.661,13.29,0.038,283.7
2023-10-25T05:10:03,42.805,6.029,-0.037,-0.003,-0.042,105.0,104.0,103.0,13.3,1505.2,339.8,-0.8,1.8,2471.642,13.29,0.037,265.4
2023-10-25T05:13:03,42.805,6.029,-0.044,0.005,0.0,105.0,102.0,102.0,13.4,1505.2,359.0,-0.8,1.8,2471.67,13.29,0.044,276.5
2023-10-25T05:16:03,42.805,6.029,-0.023,-0.008,-0.017,103.0,105.0,102.0,13.4,1505.2,333.8,-0.7,1.8,2471.622,13.29,0.024,250.8
2023-10-25T05:19:03,42.805,6.029,-0.035,-0.007,-0.042,105.0,102.0,103.0,13.4,1505.2,336.3,-0.8,1.8,2471.645,13.29,0.035,258.7
2023-10-25T05:22:03,42.805,6.029,-0.036,-0.001,-0.024,105.0,104.0,102.0,13.4,1505.2,350.3,-0.8,1.8,2471.609,13.29,0.036,268.4
2023-10-25T05:25:03,42.805,6.029,-0.03,-0.021,-0.01,103.0,104.0,102.0,13.4,1505.2,346.6,-0.8,1.8,2471.658,13.29,0.036,235.0
2023-10-25T05:28:03,42.805,6.029,-0.05,-0.011,-0.021,105.0,104.0,103.0,13.4,1505.2,349.0,-0.8,1.8,2471.624,13.29,0.051,257.6
2023-10-25T05:31:03,42.805,6.029,-0.016,-0.002,-0.006,104.0,103.0,102.0,13.4,1505.2,352.1,-0.8,1.8,2471.629,13.29,0.016,262.9
2023-10-25T05:34:03,42.805,6.029,-0.031,-0.011,-0.066,104.0,104.0,102.0,13.4,1505.2,337.3,-0.8,1.8,2471.598,13.29,0.032,250.5
2023-10-25T05:37:03,42.805,6.029,-0.033,0.001,-0.028,104.0,103.0,102.0,13.4,1505.2,350.5,-0.8,1.8,2471.65,13.29,0.033,271.7
2023-10-25T05:40:03,42.805,6.029,-0.029,-0.008,-0.018,104.0,103.0,103.0,13.4,1505.2,355.9,-0.7,1.8,2471.611,13.29,0.03,254.6
2023-10-25T05:43:03,42.805,6.029,-0.024,-0.005,-0.019,105.0,104.0,102.0,13.4,1505.2,353.9,-0.8,1.8,2471.595,13.29,0.024,258.2
2023-10-25T05:46:03,42.805,6.029,-0.017,0.005,-0.031,104.0,104.0,102.0,13.4,1505.2,356.9,-0.8,1.8,2471.585,13.29,0.017,286.4
2023-10-25T05:49:03,42.805,6.029,-0.006,-0.018,-0.045,105.0,103.0,103.0,13.3,1505.2,331.1,-0.8,1.8,2471.603,13.29,0.018,198.4
2023-10-25T05:52:03,42.805,6.029,-0.012,-0.015,-0.029,103.0,103.0,102.0,13.4,1505.2,349.0,-0.7,1.8,2471.579,13.29,0.019,218.7
2023-10-25T05:55:03,42.805,6.029,-0.021,-0.013,-0.01,104.0,105.0,103.0,13.4,1505.2,349.8,-0.8,1.7,2471.582,13.29,0.024,238.2
2023-10-25T05:58:03,42.805,6.029,-0.005,-0.004,-0.029,104.0,104.0,103.0,13.4,1505.2,341.8,-0.8,1.8,2471.612,13.29,0.006,231.3
2023-10-25T06:04:02,42.805,6.029,-0.036,-0.014,-0.02,104.0,103.0,101.0,13.4,1505.2,356.4,-0.8,1.8,2471.634,13.29,0.038,248.8
2023-10-25T06:07:03,42.805,6.029,-0.027,0.009,-0.012,104.0,104.0,103.0,13.4,1505.2,359.1,-0.7,1.8,2471.663,13.29,0.028,288.4
2023-10-25T06:10:03,42.805,6.029,-0.002,-0.017,0.002,104.0,104.0,102.0,13.4,1505.2,336.6,-0.7,1.9,2471.647,13.29,0.017,186.7
2023-10-25T06:13:03,42.805,6.029,-0.018,-0.005,-0.033,105.0,103.0,103.0,13.3,1505.2,336.8,-0.7,1.7,2471.579,13.29,0.018,254.5
2023-10-25T06:16:03,42.805,6.029,-0.024,-0.015,-0.027,104.0,104.0,102.0,13.4,1505.2,350.6,-0.8,1.8,2471.616,13.29,0.028,238.0
2023-10-25T06:19:03,42.805,6.029,-0.012,-0.012,-0.027,104.0,104.0,103.0,13.3,1505.2,347.7,-0.8,1.8,2471.642,13.29,0.016,225.0
2023-10-25T06:22:03,42.805,6.029,-0.049,-0.017,-0.005,105.0,104.0,101.0,13.4,1505.2,338.8,-0.8,1.8,2471.607,13.29,0.051,250.9
2023-10-25T06:25:03,42.805,6.029,-0.039,-0.013,0.0,104.0,104.0,101.0,13.3,1505.2,343.2,-0.8,1.8,2471.625,13.29,0.041,251.6
2023-10-25T06:28:03,42.805,6.029,-0.046,-0.027,-0.049,104.0,103.0,102.0,13.3,1505.2,351.5,-0.7,1.8,2471.641,13.29,0.053,239.6
2023-10-25T06:31:03,42.805,6.029,-0.018,-0.01,-0.052,105.0,102.0,102.0,13.4,1505.2,356.9,-0.7,1.8,2471.591,13.29,0.02,240.9
2023-10-25T06:34:03,42.805,6.029,-0.038,0.012,-0.02,105.0,103.0,103.0,13.4,1505.2,357.1,-0.8,1.8,2471.579,13.29,0.039,287.5
2023-10-25T06:37:03,42.805,6.029,-0.046,0.013,-0.033,104.0,104.0,103.0,13.4,1505.2,357.9,-0.7,1.8,2471.633,13.29,0.047,285.8
2023-10-25T06:40:03,42.805,6.029,-0.032,-0.012,-0.02,103.0,104.0,103.0,13.3,1505.2,342.8,-0.8,1.8,2471.598,13.29,0.034,249.4
2023-10-25T06:43:03,42.805,6.029,-0.027,-0.006,-0.009,104.0,104.0,102.0,13.4,1505.2,340.9,-0.7,1.8,2471.579,13.29,0.027,257.5
2023-10-25T06:46:03,42.805,6.029,-0.038,-0.002,-0.013,104.0,103.0,102.0,13.4,1505.2,341.2,-0.8,1.8,2471.611,13.29,0.038,267.0
2023-10-25T06:49:03,42.805,6.029,-0.021,-0.025,-0.004,104.0,104.0,102.0,13.3,1505.2,340.1,-0.7,1.8,2471.585,13.29,0.032,220.0
2023-10-25T06:52:03,42.805,6.029,-0.027,-0.014,-0.03,105.0,104.0,103.0,13.4,1505.2,337.6,-0.7,1.8,2471.581,13.29,0.03,242.6
2023-10-25T06:55:03,42.805,6.029,-0.033,-0.01,-0.023,105.0,104.0,103.0,13.3,1505.2,354.8,-0.8,1.8,2471.623,13.29,0.034,253.1
2023-10-25T06:58:03,42.805,6.029,-0.051,-0.002,-0.026,104.0,103.0,103.0,13.3,1505.2,350.5,-0.8,1.8,2471.569,13.29,0.051,267.8
2023-10-25T07:04:03,42.805,6.029,-0.014,-0.033,-0.008,104.0,104.0,102.0,13.4,1505.2,334.6,-0.8,1.8,2471.634,13.29,0.035,203.0
2023-10-25T07:07:03,42.805,6.029,-0.034,0.004,-0.027,104.0,104.0,102.0,13.4,1505.2,349.9,-0.8,1.8,2471.6,13.29,0.034,276.7
2023-10-25T07:10:03,42.805,6.029,-0.05,0.008,-0.047,105.0,104.0,102.0,13.4,1505.2,338.7,-0.8,1.8,2471.636,13.29,0.05,279.1
2023-10-25T07:13:03,42.805,6.029,-0.005,-0.005,-0.017,103.0,104.0,102.0,13.4,1505.2,337.0,-0.8,1.8,2471.611,13.29,0.007,225.0
2023-10-25T07:16:03,42.805,6.029,-0.026,-0.008,-0.018,104.0,105.0,103.0,13.4,1505.2,345.9,-0.8,1.8,2471.607,13.29,0.027,252.9
2023-10-25T07:19:03,42.805,6.029,-0.034,-0.004,-0.051,105.0,105.0,102.0,13.3,1505.2,348.6,-0.8,1.8,2471.611,13.29,0.034,263.3
2023-10-25T07:22:03,42.805,6.029,-0.027,-0.031,-0.037,103.0,104.0,103.0,13.4,1505.2,334.5,-0.8,1.8,2471.566,13.29,0.041,221.1
2023-10-25T07:25:03,42.805,6.029,-0.039,-0.003,-0.031,105.0,104.0,102.0,13.4,1505.2,343.2,-0.8,1.8,2471.594,13.29,0.039,265.6
2023-10-25T07:28:03,42.805,6.029,-0.026,-0.003,-0.019,104.0,104.0,102.0,13.3,1505.2,349.8,-0.8,1.8,2471.601,13.29,0.026,263.4
2023-10-25T07:31:03,42.805,6.029,-0.022,-0.016,-0.034,104.0,104.0,102.0,13.4,1505.2,349.6,-0.8,1.8,2471.549,13.29,0.027,234.0
2023-10-25T07:34:03,42.805,6.029,-0.026,0.001,-0.03,104.0,104.0,102.0,13.4,1505.2,338.3,-0.8,1.8,2471.583,13.29,0.026,272.2
2023-10-25T07:37:03,42.805,6.029,-0.037,-0.009,-0.025,105.0,104.0,103.0,13.4,1505.2,351.7,-0.8,1.8,2471.574,13.29,0.038,256.3
2023-10-25T07:40:03,42.805,6.029,-0.025,0.004,-0.034,104.0,104.0,103.0,13.4,1505.2,347.6,-0.7,1.8,2471.55,13.29,0.025,279.1
2023-10-25T07:43:03,42.805,6.029,-0.041,-0.003,-0.037,104.0,104.0,103.0,13.4,1505.2,349.8,-0.8,1.8,2471.528,13.29,0.041,265.8
2023-10-25T07:46:03,42.805,6.029,-0.037,0.0,-0.035,104.0,103.0,103.0,13.4,1505.2,350.0,-0.8,1.8,2471.593,13.29,0.037,270.0
2023-10-25T07:49:03,42.805,6.029,-0.02,-0.01,-0.025,105.0,104.0,103.0,13.4,1505.2,337.7,-0.8,1.8,2471.588,13.29,0.022,243.4
2023-10-25T07:52:03,42.805,6.029,-0.041,-0.017,-0.024,104.0,103.0,103.0,13.3,1505.2,338.2,-0.8,1.8,2471.539,13.29,0.044,247.5
2023-10-25T07:55:03,42.805,6.029,-0.03,-0.015,-0.02,111.0,103.0,103.0,13.4,1505.2,345.3,-0.8,1.8,2471.512,13.29,0.033,243.4
2023-10-25T07:58:03,42.805,6.029,-0.033,-0.012,-0.038,104.0,104.0,102.0,13.4,1505.2,339.0,-0.8,1.8,2471.579,13.29,0.035,250.0
2023-10-25T08:04:03,42.805,6.029,-0.036,-0.029,-0.024,104.0,104.0,103.0,13.3,1505.2,345.9,-0.8,1.8,2471.602,13.28,0.046,231.1
2023-10-25T08:07:03,42.805,6.029,-0.02,-0.007,-0.014,104.0,104.0,103.0,13.4,1505.2,341.2,-0.7,1.8,2471.602,13.29,0.021,250.7
2023-10-25T08:10:03,42.805,6.029,-0.042,0.006,-0.034,105.0,104.0,102.0,13.4,1505.2,349.4,-0.7,1.8,2471.593,13.29,0.042,278.1
2023-10-25T08:13:03,42.805,6.029,-0.022,0.0,-0.024,104.0,104.0,102.0,13.4,1505.2,339.6,-0.8,1.8,2471.583,13.29,0.022,270.0
2023-10-25T08:16:03,42.805,6.029,-0.046,-0.008,-0.032,104.0,103.0,102.0,13.4,1505.2,347.3,-0.8,1.8,2471.577,13.29,0.046,260.1
2023-10-25T08:19:03,42.805,6.029,-0.031,0.006,-0.033,104.0,104.0,102.0,13.4,1505.2,351.3,-0.8,1.8,2471.559,13.29,0.031,281.0
2023-10-25T08:22:03,42.805,6.029,-0.051,0.012,-0.015,104.0,104.0,103.0,13.3,1505.2,335.8,-0.8,1.8,2471.569,13.29,0.052,283.2
2023-10-25T08:25:03,42.805,6.029,-0.019,-0.006,-0.022,104.0,104.0,102.0,13.4,1505.2,344.4,-0.8,1.8,2471.537,13.29,0.019,252.5
2023-10-25T08:28:03,42.805,6.029,-0.037,0.006,-0.033,104.0,103.0,103.0,13.4,1505.2,338.5,-0.8,1.8,2471.566,13.29,0.037,279.2
2023-10-25T08:31:03,42.805,6.029,-0.015,0.007,-0.008,106.0,104.0,102.0,13.4,1505.2,348.4,-0.8,1.8,2471.53,13.29,0.016,295.0
2023-10-25T08:34:03,42.805,6.029,-0.022,0.015,-0.009,104.0,104.0,103.0,13.4,1505.2,347.3,-0.8,1.8,2471.539,13.29,0.026,304.3
2023-10-25T08:37:03,42.805,6.029,-0.03,-0.001,-0.043,105.0,104.0,102.0,13.3,1505.2,350.8,-0.8,1.8,2471.51,13.29,0.03,268.1
2023-10-25T08:40:03,42.805,6.029,-0.013,0.001,-0.018,105.0,102.0,102.0,13.4,1505.2,344.2,-0.8,1.8,2471.518,13.29,0.013,274.4
2023-10-25T08:43:03,42.805,6.029,-0.023,0.018,0.013,104.0,105.0,103.0,13.3,1505.2,353.0,-0.8,1.8,2471.556,13.29,0.029,308.0
2023-10-25T08:46:03,42.805,6.029,-0.029,-0.018,-0.019,104.0,104.0,102.0,13.4,1505.2,339.1,-0.7,1.8,2471.541,13.29,0.034,238.2
2023-10-25T08:49:03,42.805,6.029,-0.037,0.008,-0.029,103.0,103.0,103.0,13.3,1505.2,359.0,-0.8,1.8,2471.523,13.29,0.037,282.2
2023-10-25T08:52:03,42.805,6.029,-0.036,-0.011,-0.043,104.0,103.0,103.0,13.4,1505.2,337.0,-0.8,1.8,2471.508,13.29,0.037,253.0
2023-10-25T08:55:03,42.805,6.029,-0.043,-0.013,-0.021,104.0,104.0,102.0,13.4,1505.2,340.4,-0.7,1.8,2471.528,13.29,0.044,253.2
2023-10-25T08:58:03,42.805,6.029,-0.034,0.0,-0.04,104.0,104.0,102.0,13.4,1505.2,351.6,-0.8,1.8,2471.554,13.29,0.034,270.0
2023-10-25T09:04:03,42.805,6.029,-0.035,0.005,-0.023,105.0,104.0,102.0,13.3,1505.2,340.4,-0.8,1.8,2471.566,13.28,0.035,278.1
2023-10-25T09:07:03,42.805,6.029,-0.022,0.019,0.014,105.0,105.0,103.0,13.4,1505.2,344.6,-0.7,1.8,2471.592,13.29,0.029,310.8
2023-10-25T09:10:03,42.805,6.029,-0.034,0.003,-0.002,105.0,104.0,102.0,13.3,1505.2,348.5,-0.8,1.8,2471.554,13.29,0.034,275.0
2023-10-25T09:13:03,42.805,6.029,-0.026,0.0,-0.008,103.0,104.0,102.0,13.4,1505.2,343.9,-0.8,1.8,2471.575,13.29,0.026,270.0
2023-10-25T09:16:03,42.805,6.029,-0.01,0.011,0.001,105.0,104.0,103.0,13.3,1505.2,347.6,-0.7,1.8,2471.551,13.29,0.014,317.7
2023-10-25T09:19:03,42.805,6.029,-0.018,-0.018,-0.027,105.0,103.0,102.0,13.4,1505.2,335.0,-0.8,1.8,2471.54,13.29,0.025,225.0
2023-10-25T09:22:03,42.805,6.029,-0.019,-0.002,0.0,105.0,105.0,101.0,13.4,1505.2,349.8,-0.8,1.8,2471.555,13.29,0.019,264.0
2023-10-25T09:25:03,42.805,6.029,-0.05,0.0,0.001,105.0,105.0,101.0,13.4,1505.2,352.1,-0.8,1.8,2471.536,13.29,0.05,270.0
2023-10-25T09:28:03,42.805,6.029,-0.024,0.006,-0.002,104.0,104.0,103.0,13.4,1505.2,343.2,-0.8,1.8,2471.545,13.29,0.024,284.0
2023-10-25T09:31:03,42.805,6.029,-0.021,-0.013,0.009,104.0,104.0,102.0,13.4,1505.2,350.0,-0.8,1.8,2471.508,13.29,0.024,238.2
2023-10-25T09:34:03,42.805,6.029,-0.047,-0.018,-0.025,104.0,104.0,102.0,13.4,1505.2,343.2,-0.8,1.8,2471.522,13.29,0.05,249.0
2023-10-25T09:37:03,42.805,6.029,-0.034,-0.009,-0.02,105.0,104.0,102.0,13.3,1505.2,333.0,-0.8,1.8,2471.56,13.29,0.035,255.2
2023-10-25T09:40:03,42.805,6.029,-0.05,0.017,-0.025,104.0,103.0,103.0,13.4,1505.2,345.3,-0.8,1.8,2471.533,13.29,0.052,288.8
2023-10-25T09:43:03,42.805,6.029,-0.035,-0.003,-0.033,104.0,104.0,102.0,13.3,1505.2,353.3,-0.7,1.8,2471.553,13.29,0.035,265.1
2023-10-25T09:46:03,42.805,6.029,-0.039,-0.018,-0.017,104.0,104.0,102.0,13.4,1505.2,336.0,-0.7,1.8,2471.546,13.29,0.042,245.2